Location: Umburanas
(4.5000°S, 37.9667°W)
Time: 05:52:43
(UTC+00:00)

GPS 2-12 Rocket1 - Pass Details

Date: 19 November 2019
Orbit: 586 x 652 km, 20.0° (Epoch: 14 December)

Event Time Altitude Azimuth Distance (km) Brightness Sun altitude
Rises 21:08:27 0° 251° (WSW) 2,902 8.8 -10.5°
Reaches altitude 10° 21:10:48 10° 252° (WSW) 2,004 7.3 -11.0°
Maximum altitude 21:15:31 80° 338° (NNW) 649 3.1 -12.1°
Enters shadow 21:18:57 19° 65° (ENE) 1,524 4.4 -12.9°
